Regional Weather Roundup
Issued by NWS San Diego, CA

Home | Current Version | Previous Version | Text Only | Print | Product List | Glossary On
Versions: 1 2 3 4 5 6 7 8 9 10 11 12 13 14 15 16 17 18 19 20 21 22 23 24 25 26 27 28
000
ASUS46 KSGX 270111
RWRSGX

SAN DIEGO HOURLY WEATHER ROUNDUP
NATIONAL WEATHER SERVICE SAN DIEGO CA
600 PM PDT SUN MAR 26 2017

NOTE: "FAIR" INDICATES FEW OR NO CLOUDS BELOW 12,000 FEET WITH NO
SIGNIFICANT WEATHER AND/OR OBSTRUCTIONS TO VISIBILITY.

CAZ042-043-060-061-PZZ750-775-270200-

GREATER SAN DIEGO AREA

CITY           SKY/WX    TMP DP  RH WIND       PRES   REMARKS
SAN DIEGO AP   MOSUNNY   65  51  60 W8        30.05F
NATIONAL CITY    N/A     63  55  74 SW3       30.04F
CHULA VISTA      N/A     64  55  75 W1        29.96F
IMPERIAL BEACH SUNNY     63  53  70 NW7       30.05S
BROWN FIELD    MOSUNNY   61  53  75 W7        30.04S
MIRAMAR MCAS   MOSUNNY   65  52  62 W7        30.03F
MONTGOMERY FLD MOSUNNY   62  50  64 W8        30.04S

$$

NORTH SAN DIEGO COUNTY

CITY           SKY/WX    TMP DP  RH WIND       PRES   REMARKS
CAMP PENDLETON SUNNY     62  54  74 SW8       30.02F
OCEANSIDE AP   SUNNY     63  54  72 W10       30.01F
OCEANSIDE HBR    N/A     62  55  78 NW8       30.05F
VISTA            N/A     63  54  74 W3        30.01F
CARLSBAD       SUNNY     61  54  77 W7        30.02F
DEL MAR          N/A     62  55  77 CALM      30.06F
LA JOLLA SCRIP   N/A     61  55  80 NW1       30.04S
FALLBROOK        N/A     63  57  81 SW5       30.00F
ESCONDIDO        N/A     63  53  70 NW6       30.04S
SAN MARCOS       N/A     62  53  72 W7        30.03F
POWAY            N/A     65  54  65 CALM      30.05S

$$

EAST SAN DIEGO COUNTY

CITY           SKY/WX    TMP DP  RH WIND       PRES   REMARKS
RAMONA         MOSUNNY   60  53  77 W9        30.02F
SANTEE LAKES     N/A     64  55  71 CALM      30.02S
LA MESA          N/A     63  54  72 W3        29.97S
JAMUL            N/A     61  54  78 CALM      30.03S
CAMPO            N/A     60  48  64 W9        29.99R

$$

ORANGE COUNTY AND THE LOS ANGELES BASIN

CITY           SKY/WX    TMP DP  RH WIND       PRES   REMARKS
JOHN WAYNE AP  MOSUNNY   64  53  67 SW6       30.02F
LAGUNA BEACH     N/A     65  57  75 S3        29.98S
LAKE FOREST FR   N/A     65  49  56 W1        29.91F
HUNTINGTON BCH   N/A     64  57  76 SW3       30.03F
LOS ALAMITOS   FAIR      63  55  73 SW8       30.01F
FULLERTON      SUNNY     66  54  65 S9        30.00F
LONG BEACH     SUNNY     67  49  52 NW10      30.01F
L.A. AP        MOSUNNY   60  54  80 W15       30.03S
L.A. DOWNTOWN  MOSUNNY   65  52  62 VRB3      30.02S

$$

THE INLAND EMPIRE

CITY           SKY/WX    TMP DP  RH WIND       PRES   REMARKS
CORONA         SUNNY     66  51  58 W10       30.01S
CHINO          PTSUNNY   65  52  62 W8        30.01F
ONTARIO        PTSUNNY   63  51  65 W12       30.00F
SAN BERNARDINO MOSUNNY   68  45  42 W10       30.00F
RIVERSIDE AP   MOSUNNY   66  51  58 W10       30.00F
MORENO VALLEY    N/A     67  53  61 W5        28.12S
MARCH ARB      SUNNY     64  48  54 NW8       30.00F
HORSETHIEF CYN   N/A     65  45  47 NE3       30.02S
PERRIS           N/A     65  51  61 NW5       30.01S
HEMET EAST       N/A     66  49  54 SW6       30.04F
FRENCH VALLEY  FAIR      64  52  63 S10       30.01S
TEMECULA         N/A     65  55  70 SW7       30.04S

$$

SAN BERNARDINO AND RIVERSIDE COUNTY MOUNTAINS

CITY           SKY/WX    TMP DP  RH WIND       PRES   REMARKS
BIG BEAR AP    SUNNY     50  36  57 W9        30.08S
PINE COVE        N/A     46  42  85 NW3       30.03S

$$

SOUTHERN DESERT INCLUDING THE COACHELLA VALLEY

CITY           SKY/WX    TMP DP  RH WIND       PRES   REMARKS
PALM SPRINGS   SUNNY     78  45  30 NW17G23   29.89F
PALM DESERT      N/A     80  46  30 N5        29.78S
THERMAL        SUNNY     82  44  26 NW12      29.85R
BLYTHE         SUNNY     82  33  17 S7        29.85F
IMPERIAL AP    SUNNY     83  41  22 SW6       29.85S
EL CENTRO NAS  SUNNY     82  36  19 SW13      29.87R
YUMA AZ        SUNNY     81  32  17 SW6       29.87
MEXICALI       SUNNY     82  30  15 NW7       29.86S

$$

UPPER DESERT

CITY           SKY/WX    TMP DP  RH WIND       PRES   REMARKS
VICTORVILLE AP MOSUNNY   63  41  45 W16       29.98S
HESPERIA         N/A     61  43  50 W12       30.10S
PALMDALE       PTSUNNY   64  47  53 W21       29.99S
LANCASTER      PTSUNNY   60  41  49 W25G35    29.98S
EDWARDS AFB    PTSUNNY   63  38  40 W16G22    29.95R
DAGGETT        MOSUNNY   72  35  25 W25G32    29.90S
29 PALMS N     SUNNY     74  30  19 SW9       29.97F
NEEDLES        SUNNY     83  29  14 W12       29.86S

$$

REGIONAL REPORTS

CITY           SKY/WX    TMP DP  RH WIND       PRES   REMARKS
SANTA BARBARA  MOSUNNY   63  54  72 SE8       29.99F
SANDBERG       PTSUNNY   50  40  68 N24G32    30.07S
LAS VEGAS NV   PTSUNNY   73  30  20 E15       29.86F
PHOENIX AZ     MOCLDY    79  27  14 NW10      29.87S
TIJUANA        MOSUNNY   61  50  67 W8        30.06S
ENSENADA NW      N/A     62  32  32 W9        30.02S

$$

OFFSHORE ISLANDS

CITY           SKY/WX    TMP DP  RH WIND       PRES   REMARKS
CATALINA ARPT  CLOUDY    54  52  93 W9        30.04S FOG
SAN NICOLAS IS SUNNY    N/A N/A N/A NW16G28   30.05S

$$

MARINE AND OFFSHORE BUOY REPORTS

STATION/POSITION SKY/WX   TEMP    WIND        PRES    VSBY  SWELL
                          AIR SEA DIR/SP/G                  HT/PER/DIR
                          (F)     (DEG/KT/KT) (MB)    (MI)  (FT/S/D)
TANNER BANKS               58 60  310/ 19/ 23 1018.5          7/320/14
S CLEMENTE BASIN           58 61  300/ 17/ 19 1017.4          5/270/13
SAN NICOLAS IS.               57                N/A           5/300/14
SO. S. ROSA ISLA           57 57  300/ 21/ 25 1017.9          7/300/11
W. S. BARBARA CH           56 57  310/ 21/ 25 1018.4          7/290/14
M. S. BARBARA CH                  290/ 21/ 25 1016.4
S. MONICA BASIN            60 61  260/  6/  8 1016.8F         3/280/14
S PEDRO CHANNEL               62                N/A           3/280/12
CMP PENDLETON NS              61                N/A           2/230/14
OCEANSIDE OFFSHR              62                N/A           2/240/14
TORREY PINES OTR              62                N/A           3/270/13
POINT LOMA SOUTH              63                N/A           3/280/13

$$





USA.gov is the U.S. government's official web portal to all federal, state and local government web resources and services.